SCP
0 0 0 0 0 0 0 0 0 0 0 0 0 0 0 0 0 1 1 1 1 1 0 0 0 0 0 0 0 0 0 0 0 0 0 0 0 0 0 0 0 0 0 0
0 0 0 0 0 0 0 0 0 0 0 0 0 0 0 0 0 1 1 1 1 1 1 0 0 0 0 0 0 0 0 0 0 0 0 0 0 0 0 0 0 0 0 0
0 0 0 0 0 0 0 0 0 0 0 0 0 0 0 0 0 0 1 1 1 1 1 0 0 0 0 0 0 0 0 0 0 0 0 0 0 0 0 0 0 0 0 0
0 0 0 0 0 0 0 0 0 0 0 0 0 0 0 0 0 0 0 1 1 1 1 0 0 0 0 0 0 0 0 0 0 0 0 0 0 0 0 0 0 0 0 0
0 0 0 0 0 0 0 0 0 0 0 0 0 0 0 0 0 0 0 1 1 1 1 0 0 0 0 0 0 0 0 0 0 0 0 0 0 0 0 0 0 0 0 0
0 0 0 0 0 0 0 0 0 0 0 0 0 0 0 0 0 0 0 1 1 1 0 0 0 0 0 0 0 0 0 0 0 0 0 0 0 0 0 0 0 0 0 0
0 0 0 0 0 0 0 0 0 0 0 0 0 0 0 0 0 0 0 0 0 0 0 0 0 0 0 0 0 0 0 0 0 0 0 0 0 0 0 0 0 0 0 0
0 0 0 0 0 0 0 0 0 0 0 0 0 0 0 0 0 0 0 0 0 0 0 0 0 0 0 0 0 0 0 0 0 0 0 0 0 0 0 0 0 0 0 0
0 0 0 0 0 0 0 0 0 0 0 0 0 0 0 0 0 0 0 0 0 0 0 0 0 0 0 0 0 0 0 0 0 0 0 0 0 0 0 0 0 0 0 0
0 0 0 0 0 0 0 0 0 0 0 0 0 0 0 0 0 0 0 0 0 0 0 0 0 0 0 0 0 0 0 0 0 0 0 0 0 0 0 0 0 0 0 0
0 0 0 0 0 0 0 0 0 0 0 0 0 0 0 0 0 0 0 0 0 0 0 0 0 0 0 0 0 0 0 0 0 0 0 0 0 0 0 0 0 0 0 0
0 0 0 0 0 0 0 0 0 0 0 0 0 0 0 0 0 0 0 0 0 0 0 0 0 0 0 0 0 0 0 0 0 0 0 0 0 0 0 0 0 0 0 0
-0 0 0 0 0 0 0 0 0 0 0 0 0 0 0 0 0 0 0 0 0 0 0 0 0 0 0 0 0 0 0 0 0 0 0 0 0 0 0 0 0 0 0 0
0 0 0 0 0 0 0 0 0 0 0 0 0 0 0 0 0 0 0 0 0 0 0 0 0 0 0 0 0 0 0 0 0 0 0 0 0 0 0 0 0 0 0 0
0 0 0 0 0 0 0 0 0 0 0 0 0 0 0 0 0 0 0 0 0 0 0 0 0 0 0 0 0 0 0 0 0 0 0 0 0 0 0 0 0 0 0 0
0 0 0 0 0 0 0 0 0 0 0 0 0 0 0 0 0 0 0 0 0 0 0 0 0 0 0 0 0 0 0 0 0 0 0 0 0 0 0 0 0 0 0 0
0 0 0 0 0 0 0 0 0 0 0 0 0 0 0 0 0 0 0 0 0 0 0 0 0 0 0 0 0 0 0 0 0 0 0 0 0 0 0 0 0 0 0 0
0 0 0 0 0 0 0 0 0 0 0 0 0 0 0 0 0 0 0 0 0 0 0 0 0 0 0 0 0 0 0 0 0 0 0 0 0 0 0 0 0 0 0 0
0 0 0 0 0 0 0 0 0 0 0 0 0 0 0 0 0 0 0 0 0 0 0 0 0 0 0 0 0 0 0 0 0 0 0 0 0 0 0 0 0 0 0 0
0 0 0 0 0 0 0 0 0 0 0 0 0 0 0 0 0 0 0 0 0 0 0 0 0 0 0 0 0 0 0 0 0 0 0 0 0 0 0 0 0 0 0 0
0 0 0 0 0 0 0 0 0 0 0 0 0 0 0 0 0 0 0 0 0 0 0 0 0 0 0 0 0 0 0 0 0 0 0 0 0 0 0 0 0 0 0 0
0 0 0 0 0 0 0 0 0 0 0 0 0 0 0 0 0 0 0 0 0 0 0 0 0 0 0 0 0 0 0 0 0 0 0 0 0 0 0 0 0 0 0 0
0 0 0 0 0 0 0 0 0 0 0 0 0 0 0 0 0 0 0 0 0 0 0 0 0 0 0 0 0 0 0 0 0 0 0 0 0 0 0 0 0 0 0 0
0 0 0 0 0 0 0 0 0 0 0 0 0 0 0 0 0 0 0 0 0 0 0 0 0 0 0 0 0 0 0 0 0 0 0 0 0 0 0 0 0 0 0 0
0 0 0 0 0 0 0 0 0 0 0 0 0 0 0 0 0 0 0 0 0 0 0 0 0 0 0 0 0 0 0 0 0 0 0 0 0 0 0 0 0 0 0 0
0 0 0 0 0 0 0 0 0 0 0 0 0 0 0 0 0 0 0 0 0 0 0 0 0 0 0 0 0 0 0 0 0 0 0 0 0 0 0 0 0 0 0 0
Wind_Speed
4 5 3 5 6 5 3 3 4 6 4 3 7 10 10 7 7 8 8 9 9 10 7 8 9 10 9 8 8 7 7 5 4 3 3 2 1 0 0 0 1 1 2 3
5 2 6 6 5 3 2 0 3 4 5 4 5 10 10 7 10 10 11 10 10 8 7 8 8 9 9 9 8 7 7 6 5 3 3 2 2 1 1 1 1 1 1 2
5 5 6 6 5 4 3 4 5 4 2 2 2 8 6 4 5 6 7 8 9 13 13 12 10 8 9 9 9 9 8 7 6 5 3 3 3 2 1 1 1 2 1 1
2 3 6 7 6 6 4 7 5 3 1 3 1 3 8 4 2 5 6 6 8 10 10 11 11 10 10 9 8 8 8 7 6 6 5 4 3 2 2 2 2 2 1 1
4 4 7 7 7 8 6 4 3 2 1 2 2 1 8 3 1 5 6 7 8 10 12 13 12 12 9 8 8 8 8 7 6 6 6 5 3 2 1 1 1 1 1 2
2 3 5 6 4 5 2 4 4 4 4 2 2 1 5 4 4 4 4 5 7 9 10 10 9 8 7 7 8 8 8 7 6 6 6 6 5 3 2 1 1 1 1 2
2 1 2 2 2 2 4 5 5 7 5 4 3 1 6 6 5 4 5 6 7 8 9 9 9 9 9 9 9 8 9 7 6 6 5 6 5 4 4 3 3 2 1 2
2 2 3 2 3 2 2 7 6 3 3 5 4 1 6 5 3 1 2 4 6 8 9 10 11 11 10 10 10 9 9 8 7 6 6 5 5 4 3 4 3 3 3 3
3 2 2 2 2 4 3 2 5 6 1 2 4 4 6 3 2 1 2 3 6 7 9 10 10 10 10 11 11 11 10 8 7 7 6 5 5 5 4 4 3 3 3 3
4 1 2 1 4 3 4 5 5 4 3 2 5 3 4 4 3 2 2 4 6 6 7 8 8 9 9 10 9 9 9 9 8 7 6 5 5 5 5 4 4 3 3 2
4 4 3 3 1 1 1 2 5 4 5 4 1 6 6 5 5 4 5 5 5 6 7 8 8 8 8 7 8 8 8 7 7 7 6 5 5 5 5 4 4 4 3 3
3 5 1 3 4 3 3 3 5 4 1 4 3 8 6 4 4 3 3 3 3 4 5 6 6 6 7 8 8 8 8 8 8 7 7 6 5 5 5 5 5 4 4 4
3 6 4 7 8 6 2 1 4 5 4 4 3 7 5 5 5 5 4 4 3 2 2 2 3 5 7 8 8 8 8 9 8 7 7 6 6 6 6 6 5 4 4 3
4 4 5 4 5 4 4 4 1 4 3 3 5 6 6 5 5 6 6 5 3 2 1 2 3 5 6 7 8 8 8 8 8 8 8 8 7 7 7 6 5 5 5 4
5 3 0 3 3 1 2 5 4 4 7 7 6 3 3 2 2 4 6 7 7 6 5 3 4 5 5 6 7 8 8 8 9 8 8 9 8 7 6 6 6 5 5 5
4 2 3 4 4 5 5 7 5 4 2 4 3 0 1 1 4 7 8 8 8 7 7 6 4 4 5 7 8 8 8 8 9 10 10 9 7 7 7 7 6 5 5 4
2 2 2 3 5 5 5 4 0 1 2 3 3 2 1 4 7 7 7 7 7 7 8 7 6 6 6 7 9 10 10 8 9 10 10 9 8 8 8 7 6 6 6 5
3 3 2 1 3 2 6 2 3 6 5 4 4 2 2 3 4 5 7 7 8 9 9 9 8 6 5 5 6 7 7 8 9 10 10 9 9 9 8 7 7 7 5 5
8 6 3 2 2 5 5 3 1 4 3 4 3 4 3 1 3 6 8 7 7 7 7 7 8 6 5 4 4 4 6 7 8 10 10 10 10 9 8 8 8 6 5 5
5 5 4 3 3 5 6 5 1 7 2 3 3 4 4 5 4 4 8 8 9 9 8 9 10 8 7 6 3 3 6 7 9 11 11 10 10 11 11 10 8 6 5 6
3 2 4 4 5 7 5 5 2 3 5 2 2 4 4 3 2 4 6 7 8 8 8 9 9 9 8 8 4 3 4 7 9 8 8 9 10 11 11 9 7 6 6 5
2 2 3 3 4 6 4 3 2 4 2 2 3 3 3 1 2 4 6 7 9 9 10 9 9 9 9 8 7 5 5 7 5 5 7 9 10 10 9 8 8 7 7 6
2 4 4 5 5 3 1 2 2 4 4 2 2 1 2 2 3 4 5 6 7 7 8 8 8 10 9 9 8 7 8 7 4 4 7 9 9 9 8 10 9 7 7 6
4 1 1 1 3 1 1 2 2 3 3 2 2 1 2 1 2 3 4 5 6 6 7 7 9 10 11 10 9 8 9 6 4 5 6 6 8 8 7 7 8 8 8 7
5 2 1 3 4 2 1 2 2 2 2 2 1 1 0 1 2 3 3 4 5 6 6 6 7 8 10 10 10 10 9 7 6 5 5 5 6 7 7 7 6 9 9 10
6 7 6 8 7 5 5 4 2 2 2 2 1 0 1 0 1 3 3 4 4 5 6 7 7 9 10 10 10 10 9 8 6 5 5 4 4 5 5 6 3 0 3 9
Wind_Direction
116 94 142 187 178 163 147 175 229 249 261 240 246 262 266 238 219 215 210 208 201 202 188 163 155 151 147 150 149 146 144 148 131 112 116 117 123 155 24 298 69 57 40 28
76 154 191 170 172 166 125 137 269 273 253 229 262 271 270 234 213 210 204 203 199 188 165 165 159 157 156 159 159 152 151 152 145 141 150 157 158 182 194 272 349 3 38 19
149 204 175 157 167 176 213 209 230 244 311 275 313 314 301 275 219 212 205 198 189 182 175 172 167 166 161 163 164 162 160 155 152 141 118 88 64 40 24 344 302 293 298 13
188 204 164 163 193 182 231 226 226 238 48 310 76 300 304 302 243 210 204 189 187 182 173 171 170 172 175 173 163 156 156 154 153 142 131 135 143 174 222 226 245 274 284 311
223 180 161 175 203 185 215 227 224 255 142 345 355 136 294 325 244 236 216 195 186 178 174 177 179 179 176 165 157 155 151 153 156 148 143 141 154 192 222 231 248 271 295 291
217 190 171 190 202 182 172 46 31 39 64 9 286 134 286 279 241 236 223 200 189 180 179 179 176 165 164 156 151 151 151 158 163 155 154 157 167 180 179 199 217 245 274 288
7 320 237 165 95 25 77 73 31 15 15 278 288 118 260 269 263 212 196 195 188 179 174 171 170 171 170 164 162 159 158 164 171 165 169 176 181 182 189 199 200 195 216 245
111 285 254 187 156 172 150 131 141 162 237 292 346 320 271 284 285 241 171 173 170 176 180 181 182 179 176 173 168 165 167 170 176 176 185 188 189 185 198 204 194 193 205 218
140 263 276 208 162 135 117 139 166 135 123 2 331 320 317 336 348 40 106 147 178 187 189 189 186 183 180 177 178 174 172 175 182 184 185 191 195 190 198 200 190 192 206 214
133 122 309 311 50 23 143 146 86 88 103 3 329 306 260 275 269 260 205 199 206 202 198 195 191 189 187 184 180 175 173 179 184 185 187 191 198 196 195 187 188 195 205 206
75 101 344 21 100 240 21 69 98 106 139 135 309 282 246 234 238 233 236 231 221 210 205 200 199 195 188 180 176 177 178 177 182 187 191 190 198 198 192 194 202 200 202 198
58 105 37 289 283 210 169 171 139 135 193 153 165 270 290 279 278 287 281 278 252 223 215 206 197 187 182 185 185 185 184 183 187 188 186 193 196 190 193 208 214 209 204 201
80 90 54 353 345 352 356 214 149 133 124 148 163 267 315 4 0 359 344 321 305 279 253 224 199 193 193 193 192 191 190 191 188 183 185 192 196 195 201 211 213 209 204 202
93 97 141 184 240 272 298 300 243 130 151 209 218 246 315 344 6 3 3 351 342 334 293 240 220 218 212 202 197 196 198 192 187 184 187 194 201 203 207 207 205 207 203 199
75 95 176 233 257 288 282 288 275 210 198 193 226 221 277 312 9 11 17 21 23 9 348 296 248 231 221 215 209 203 201 195 189 186 193 201 204 204 204 202 204 205 203 204
48 89 36 343 334 348 324 306 289 272 235 194 165 176 312 54 61 39 28 26 20 1 342 322 289 257 231 219 214 209 204 199 190 191 200 201 197 197 201 203 201 198 203 206
358 85 64 294 310 358 318 294 271 33 355 154 157 199 104 75 59 44 26 20 11 354 345 332 308 268 246 230 213 210 207 196 194 198 201 197 194 195 201 200 195 198 203 202
183 122 137 247 354 252 243 273 105 92 40 46 91 73 79 116 109 59 31 17 5 355 347 339 325 303 274 253 230 215 198 192 197 201 202 198 193 196 197 194 198 202 197 197
173 152 149 147 217 278 290 301 168 127 46 0 76 57 31 28 49 16 6 5 357 347 342 334 328 308 299 283 247 210 198 197 200 204 205 202 195 194 192 196 201 199 192 198
133 129 136 149 179 239 253 290 304 108 93 328 76 68 39 52 45 322 334 350 354 351 350 348 347 348 343 325 294 208 207 202 209 211 209 204 197 195 197 200 198 192 189 198
79 117 175 193 213 253 272 304 42 147 215 222 99 87 74 88 199 272 327 351 351 349 348 352 354 355 344 340 333 265 227 223 225 220 210 201 199 198 198 195 190 186 186 185
199 175 197 167 194 249 313 33 109 191 169 135 99 88 86 86 346 348 352 350 350 351 351 351 352 347 346 349 347 318 279 259 245 220 209 204 202 201 197 188 189 184 179 180
210 196 192 188 208 239 0 115 144 139 131 132 115 96 87 44 354 346 343 343 343 346 345 344 344 341 342 349 346 325 305 304 277 228 220 212 203 201 190 186 187 182 181 184
287 346 135 266 243 233 85 110 109 124 137 148 141 119 80 17 330 333 334 335 336 335 338 340 343 341 338 337 338 324 317 317 294 249 230 217 202 200 196 191 189 186 188 190
245 305 298 267 268 301 255 184 174 159 144 130 110 111 78 346 321 318 320 322 325 327 328 336 335 329 325 328 330 328 327 323 310 284 250 227 210 199 196 194 195 195 199 194
209 203 209 237 230 210 237 244 198 164 172 177 163 310 319 276 297 317 313 312 316 322 325 327 327 324 322 324 324 327 327 322 308 300 276 242 216 199 189 179 171 245 204 203